"Pseudo-MPEC" for C142AD5

Created 2025 May 21 22:31:02 UT using Find_Orb

Click here for an explanation of pseudo-MPECs

 
 Astrometry: 
     C142AD5* C2025 05 04.41311717 03 50.890+35 55 57.68   ~54Al 21.23GVNEOCPV00
     C142AD5  C2025 05 04.41872817 03 48.301+35 54 25.88   ~54Al 20.76GVNEOCPV00
     C142AD5  C2025 05 04.42432817 03 45.803+35 52 55.81   ~54Al 21.12GVNEOCPV00
     C142AD5  C2025 05 04.42993717 03 43.283+35 51 24.44   ~54Al       VNEOCPV00
     C142AD5 mC2025 05 04.48268417 03 20.387+35 37 09.30   ~54C2 20.81GVNEOCPV00
     C142AD5 mC2025 05 04.48330617 03 20.131+35 36 59.69   ~54C2 21.28GVNEOCPV00
     C142AD5 mC2025 05 04.48392817 03 19.890+35 36 49.36   ~54C2 21.12GVNEOCPV00
     C142AD5 mC2025 05 04.48455517 03 19.609+35 36 39.28   ~54C2 20.69GVNEOCPV00

Station data:
(V00) Kitt Peak-Bok  (N31.963125 W111.600190)  US/Arizona.  Observers T. A.
   Pruyne, B. M. Africano, E. J. Christensen, G. A. Farneth, D. C. Fuls, A.
   R. Gibbs, A. D. Grauer, H. Gröller, J. A. Johnson, R. A. Kowalski, S. M.
   Larson, G. J. Leonard, D. Rankin, R. L. Seaman, F. C. Shelly, K. W.
   Wierzchoś. 2.25-m reflector + 4x4K mosaic CCD.

Orbital elements:  C142AD5
   Perihelion 2025 Mar 23.75350 +/- 4.02 TT = 18:05:02 (JD 2460758.25350)
Epoch 2025 May  4.0 TT = JDT 2460799.5   Earth MOID: 0.0149      AutoNEOCP
M  21.24865570 +/- 7                (J2000 ecliptic)
n   0.51516263 +/- 0.156            Peri.  319.42596 +/- 24
a   1.54113190 +/- 0.312            Node   213.25771 +/- 26
e   0.4085247 +/- 0.132             Incl.    8.09556 +/- 4.4
P   1.913/698.795d         H 26.52  G  0.15   U 11.5  SR
q 0.91154130 +/- 0.0234    Q 2.17072250 +/- 0.79
From 8 observations 2025 May 4 (1.7 hr); mean residual 0".30
Residuals in arcseconds: 
250504 V00  .66+  .48+    250504 V00  .42-  .30-    250504 V00  .24+  .01-    
250504 V00  .22-  .45-    250504 V00  .11-  .24-    250504 V00  .04+  .08+    
250504 V00  .16-  .19+    250504 V00  .02-  .24+    

Ephemerides (geocentric):
Date (UTC) HH   RA             Dec           delta  r     elong  mag " sig PA
---- --------  ------------   ------------  ------ ------ -----  --- --------
2025 05 21 23  16 39 38.656   +13 44 22.24  .12812 1.1186 144.2 23.7 503' 165
2025 05 22 00  16 39 37.312   +13 43 17.47  .12836 1.1189 144.2 23.7 504' 165
2025 05 22 01  16 39 35.971   +13 42 12.82  .12860 1.1191 144.2 23.7 504' 165
2025 05 22 02  16 39 34.632   +13 41 08.30  .12884 1.1194 144.3 23.7 505' 165
2025 05 22 03  16 39 33.295   +13 40 03.90  .12908 1.1196 144.3 23.7 505' 165
2025 05 22 04  16 39 31.961   +13 38 59.63  .12933 1.1198 144.3 23.7 506' 165
2025 05 22 05  16 39 30.628   +13 37 55.48  .12957 1.1201 144.3 23.7 506' 165
2025 05 22 06  16 39 29.298   +13 36 51.46  .12981 1.1203 144.4 23.7 507' 165
2025 05 22 07  16 39 27.971   +13 35 47.55  .13005 1.1206 144.4 23.7 507' 165
2025 05 22 08  16 39 26.645   +13 34 43.77  .13029 1.1208 144.4 23.7 508' 165
2025 05 22 09  16 39 25.322   +13 33 40.10  .13053 1.1210 144.4 23.7 508' 165
2025 05 22 10  16 39 24.001   +13 32 36.56  .13077 1.1213 144.4 23.7 509' 165
2025 05 22 11  16 39 22.683   +13 31 33.13  .13102 1.1215 144.5 23.7 509' 165
2025 05 22 12  16 39 21.366   +13 30 29.82  .13126 1.1218 144.5 23.7 510' 165
2025 05 22 13  16 39 20.052   +13 29 26.63  .13150 1.1220 144.5 23.7 511' 165
2025 05 22 14  16 39 18.740   +13 28 23.55  .13174 1.1223 144.5 23.7 511' 165
2025 05 22 15  16 39 17.430   +13 27 20.59  .13198 1.1225 144.6 23.7 512' 165
2025 05 22 16  16 39 16.123   +13 26 17.74  .13223 1.1227 144.6 23.7 512' 165
2025 05 22 17  16 39 14.818   +13 25 15.01  .13247 1.1230 144.6 23.7 513' 165
2025 05 22 18  16 39 13.514   +13 24 12.39  .13271 1.1232 144.6 23.7 513' 165
2025 05 22 19  16 39 12.214   +13 23 09.88  .13295 1.1235 144.6 23.7 514' 165
2025 05 22 20  16 39 10.915   +13 22 07.48  .13320 1.1237 144.7 23.7 514' 165
2025 05 22 21  16 39 09.619   +13 21 05.19  .13344 1.1239 144.7 23.7 515' 165
2025 05 22 22  16 39 08.324   +13 20 03.02  .13368 1.1242 144.7 23.7 515' 165
2025 05 22 23  16 39 07.032   +13 19 00.95  .13393 1.1244 144.7 23.7 516' 165
2025 05 23 00  16 39 05.743   +13 17 58.99  .13417 1.1247 144.8 23.8 516' 165
2025 05 23 01  16 39 04.455   +13 16 57.14  .13441 1.1249 144.8 23.8 517' 165
2025 05 23 02  16 39 03.170   +13 15 55.40  .13465 1.1252 144.8 23.8 517' 165
2025 05 23 03  16 39 01.886   +13 14 53.76  .13490 1.1254 144.8 23.8 518' 165
2025 05 23 04  16 39 00.605   +13 13 52.23  .13514 1.1256 144.8 23.8 518' 165
2025 05 23 05  16 38 59.326   +13 12 50.80  .13538 1.1259 144.9 23.8 519' 165
2025 05 23 06  16 38 58.050   +13 11 49.48  .13563 1.1261 144.9 23.8 519' 165
2025 05 23 07  16 38 56.775   +13 10 48.26  .13587 1.1264 144.9 23.8 520' 165
2025 05 23 08  16 38 55.503   +13 09 47.14  .13611 1.1266 144.9 23.8 520' 165
2025 05 23 09  16 38 54.233   +13 08 46.13  .13636 1.1269 145.0 23.8 521' 165
2025 05 23 10  16 38 52.965   +13 07 45.22  .13660 1.1271 145.0 23.8 521' 165
2025 05 23 11  16 38 51.699   +13 06 44.40  .13684 1.1273 145.0 23.8 522' 165
2025 05 23 12  16 38 50.436   +13 05 43.69  .13709 1.1276 145.0 23.8 522' 165
2025 05 23 13  16 38 49.174   +13 04 43.08  .13733 1.1278 145.0 23.8 523' 165
2025 05 23 14  16 38 47.915   +13 03 42.57  .13758 1.1281 145.1 23.8 523' 165
2025 05 23 15  16 38 46.658   +13 02 42.15  .13782 1.1283 145.1 23.8 524' 165
2025 05 23 16  16 38 45.403   +13 01 41.83  .13806 1.1286 145.1 23.8 524' 165
2025 05 23 17  16 38 44.150   +13 00 41.61  .13831 1.1288 145.1 23.8 525' 165
2025 05 23 18  16 38 42.900   +12 59 41.49  .13855 1.1290 145.1 23.8 525' 165
2025 05 23 19  16 38 41.651   +12 58 41.46  .13880 1.1293 145.2 23.8 525' 165
2025 05 23 20  16 38 40.405   +12 57 41.53  .13904 1.1295 145.2 23.8 526' 165
2025 05 23 21  16 38 39.161   +12 56 41.69  .13929 1.1298 145.2 23.8 526' 165
2025 05 23 22  16 38 37.919   +12 55 41.94  .13953 1.1300 145.2 23.8 527' 165